Florence, SC

12:01 PM EST on January 18, 2018 (GMT -0500)
Florence Regional

Weather History for KFLO - March, 2014

Change the Weather History Date:

Friday, March 28, 2014

  Actual Average Record
Temperature  
Mean Temperature 57 °F 59 °F  
Max Temperature 72 °F 71 °F 87 °F (2007)
Min Temperature 41 °F 46 °F 28 °F (1982)
Degree Days  
Heating Degree Days 8 7  
Month to date heating degree days 428 288  
Since 1 July heating degree days 2557 2354  
Cooling Degree Days 0 1  
Month to date cooling degree days 0 15  
Year to date cooling degree days 6 21  
Growing Degree Days 6 (Base 50)    
Moisture  
Dew Point 55 °F    
Average Humidity 79    
Maximum Humidity 97    
Minimum Humidity 61    
Precipitation  
Precipitation 0.75 in 0.10 in 1.63 in (1980)
Month to date precipitation 3.41 3.01  
Year to date precipitation 9.13 9.16  
Sea Level Pressure  
Sea Level Pressure 30.17 in    
Wind  
Wind Speed 6 mph (South)    
Max Wind Speed 21 mph    
Max Gust Speed 25 mph    
Visibility 8 miles    
Events Rain    
T = Trace of Precipitation, MM = Missing Value Source: NWS Daily Summary

Daily Weather History Graph

Daily Weather History Graph

Search for Another Location

Airport or City:

Trip Planner

Search our weather history database for the weather conditions in past years. The results will help you decide how hot, cold, wet, or windy it might be!

Date:

Astronomy

Mar. 28, 2014 Rise Set
Actual Time 7:11 AM EDT 7:36 PM EDT
Civil Twilight 6:46 AM EDT 8:01 PM EDT
Nautical Twilight 6:17 AM EDT 8:31 PM EDT
Astronomical Twilight 5:47 AM EDT 9:01 PM EDT
Moon 5:35 AM EDT (3/28) 5:36 PM EDT (3/28)
Length of Visible Light 13h 15m
Length of Day
12h 25m
Waning Crescent, 6% of the Moon is Illuminated
Mar 28
Waning Crescent
Mar 30
New
Apr 7
First Quarter
Apr 15
Full
Apr 22
Last Quarter

Hourly Weather History & Observations

Time (EDT) Temp. Windchill Dew Point Humidity Pressure Visibility Wind Dir Wind Speed Gust Speed Precip Events Conditions
12:53 AM 44.1 °F - 37.0 °F 76% 30.28 in 10.0 mi Calm Calm - N/A   Clear
1:53 AM 43.0 °F - 37.9 °F 82% 30.28 in 10.0 mi Calm Calm - N/A   Clear
2:53 AM 42.1 °F - 37.9 °F 85% 30.26 in 10.0 mi Calm Calm - N/A   Clear
3:53 AM 43.0 °F 41.3 °F 37.9 °F 82% 30.24 in 10.0 mi SSE 3.5 mph - N/A   Scattered Clouds
4:53 AM 44.1 °F - 39.9 °F 85% 30.23 in 10.0 mi Calm Calm - N/A   Scattered Clouds
5:53 AM 46.0 °F - 43.0 °F 89% 30.22 in 10.0 mi Calm Calm - N/A   Mostly Cloudy
6:53 AM 46.9 °F - 44.1 °F 90% 30.21 in 10.0 mi SE 4.6 mph - N/A   Mostly Cloudy
7:53 AM 50.0 °F - 46.0 °F 86% 30.22 in 10.0 mi SSE 4.6 mph - N/A   Mostly Cloudy
8:53 AM 55.9 °F - 50.0 °F 80% 30.23 in 10.0 mi SSE 5.8 mph - N/A   Scattered Clouds
9:53 AM 62.1 °F - 52.0 °F 70% 30.25 in 10.0 mi South 4.6 mph - N/A   Overcast
10:53 AM 69.1 °F - 55.0 °F 61% 30.21 in 10.0 mi South 15.0 mph - N/A   Mostly Cloudy
11:53 AM 64.0 °F - 59.0 °F 84% 30.21 in 2.5 mi South 16.1 mph 23.0 mph 0.01 in Rain Light Rain
12:04 PM 64.9 °F - 61.0 °F 87% 30.21 in 5.0 mi SSW 10.4 mph - 0.00 in   Overcast
12:53 PM 64.9 °F - 60.1 °F 84% 30.19 in 10.0 mi South 10.4 mph - 0.00 in Rain Light Rain
1:53 PM 70.0 °F - 60.1 °F 71% 30.16 in 10.0 mi South 16.1 mph 20.7 mph 0.00 in   Overcast
2:25 PM 70.0 °F - 60.1 °F 71% 30.15 in 10.0 mi South 10.4 mph - N/A   Overcast
2:51 PM 71.6 °F - 59.0 °F 64% 30.14 in 10.0 mi South 12.7 mph - N/A   Overcast
2:53 PM 71.1 °F - 59.0 °F 66% 30.14 in 10.0 mi South 9.2 mph - N/A   Overcast
3:53 PM 71.1 °F - 59.0 °F 66% 30.12 in 10.0 mi SSE 12.7 mph - N/A   Overcast
4:53 PM 71.1 °F - 59.0 °F 66% 30.11 in 10.0 mi South 8.1 mph - N/A   Overcast
5:00 PM 71.1 °F - 60.1 °F 68% 30.12 in 10.0 mi SSW 8.1 mph - N/A   Overcast
5:53 PM 68.0 °F - 61.0 °F 78% 30.11 in 10.0 mi South 5.8 mph - 0.00 in Rain Light Rain
6:36 PM 66.9 °F - 61.0 °F 81% 30.12 in 10.0 mi Calm Calm - 0.00 in   Overcast
6:53 PM 66.9 °F - 61.0 °F 81% 30.12 in 10.0 mi NW 6.9 mph - 0.00 in   Overcast
7:21 PM 64.9 °F - 61.0 °F 87% 30.13 in 2.5 mi West 6.9 mph - 0.05 in Rain Heavy Rain
7:47 PM 64.4 °F - 60.8 °F 88% 30.13 in 1.8 mi West 3.5 mph - 0.23 in Rain Heavy Rain
7:53 PM 63.0 °F - 61.0 °F 93% 30.13 in 2.5 mi Calm Calm - 0.27 in Rain Heavy Rain
8:49 PM 62.6 °F - 59.0 °F 88% 30.14 in 4.0 mi South 3.5 mph - 0.22 in Rain Light Rain
8:53 PM 62.1 °F - 60.1 °F 93% 30.13 in 4.0 mi Variable 3.5 mph - 0.23 in Rain Rain
9:53 PM 61.0 °F - 59.0 °F 93% 30.13 in 9.0 mi SSE 4.6 mph - 0.02 in Rain Light Rain
10:53 PM 61.0 °F - 59.0 °F 93% 30.12 in 3.0 mi SE 5.8 mph - 0.10 in Rain Light Rain
11:01 PM 61.0 °F - 59.0 °F 93% 30.12 in 2.5 mi SE 5.8 mph - 0.03 in Rain Rain
11:09 PM 61.0 °F - 59.0 °F 93% 30.12 in 3.0 mi SE 5.8 mph - 0.04 in Rain Rain
11:49 PM 60.8 °F - 59.0 °F 94% 30.11 in 5.0 mi SE 6.9 mph - 0.10 in Rain Light Rain
11:53 PM 60.1 °F - 59.0 °F 96% 30.10 in 5.0 mi ESE 5.8 mph - 0.10 in Rain Light Rain